Regional Weather Roundup
Issued by NWS Sioux Falls, SD

Home | Current Version | Previous Version | Text Only | Print | Product List | Glossary Off
Versions: 1 2 3 4 5 6 7 8 9 10 11 12 13 14 15 16 17 18 19 20 21 22 23 24 25 26 27 28 29 30 31 32 33 34 35 36 37 38 39 40 41 42 43 44 45 46 47 48 49 50

563
ASUS43 KFSD 222110
RWRFSD

WEATHER ROUNDUP FOR SE SOUTH DAKOTA/SW MINNESOTA/NW IOWA
NATIONAL WEATHER SERVICE SIOUX FALLS SD
400 PM CDT FRI SEP 22 2017

NOTE: "FAIR" INDICATES FEW OR NO CLOUDS BELOW 12,000 FEET WITH NO
SIGNIFICANT WEATHER AND OR OBSTRUCTIONS TO VISIBILITY.


SDZ038>040-050-052>070-222200-
SOUTHEAST SOUTH DAKOTA

CITY           SKY/WX    TMP DP  RH WIND       PRES   REMARKS
BROOKINGS      SUNNY     89  70  53 S22G30    29.70S
CHAMBERLAIN    SUNNY     78  56  46 W16       29.73R
HURON          SUNNY     85  56  37 W14G21    29.66R
MADISON        FAIR      90  70  51 S20G29    29.70F HX  95
MITCHELL       SUNNY     86  59  39 W13       29.68R
SIOUX FALLS    MOSUNNY   91  72  53 S20G38    29.71S HX  98
WINNER         FAIR      73  53  49 W17G23    29.76R
YANKTON        SUNNY     94  69  44 S25       29.67F HX  99
$$

MNZ071-072-080-081-089-090-097-098-222200-
SOUTHWEST MINNESOTA

CITY           SKY/WX    TMP DP  RH WIND       PRES   REMARKS
FAIRMONT       SUNNY     92  71  50 S24G36    29.79F HX  98
JACKSON        SUNNY     91  66  43 S21G29    29.80S
LUVERNE        SUNNY     90  66  45 S17G23    29.74F
MARSHALL       SUNNY     92  70  48 S23G29    29.70S HX  97
MONTEVIDEO     SUNNY     93  70  46 S13G20    29.69S HX  99
PIPESTONE      SUNNY     88  70  55 S20G26    29.74S
REDWOOD FALLS  LGT RAIN  92  69  47 S22G28    29.72F HX  97
TRACY          SUNNY     90  71  53 S21G28    29.73F HX  96
WINDOM         SUNNY     91  66  43 S18G33    29.76F
WORTHINGTON    SUNNY     91  70  49 S18G28    29.77F HX  96
$$

IAZ001>003-012>014-020>022-031-032-NEZ013-014-SDZ071-222200-
NORTHWEST IOWA

CITY           SKY/WX    TMP DP  RH WIND       PRES   REMARKS
CHEROKEE       SUNNY     91  69  48 S23G30    29.79S HX  95
DENISON        SUNNY     91  70  49 S25G31    29.83F HX  97
ESTHERVILLE    SUNNY     91  70  49 S21G31    29.79F HX  96
LE MARS        SUNNY     93  70  46 S21G31    29.74F HX  99
ORANGE CITY    SUNNY     91  72  52 S24G31    29.76F HX  98
SHELDON        SUNNY     91  68  46 S20G32    29.75F HX  95
SIOUX CITY     SUNNY     94  70  45 S25G33    29.76S HX 100
SPENCER        SUNNY     93  68  43 S25G33    29.79S HX  97
STORM LAKE     SUNNY     91  70  49 S22G36    29.81S HX  97
$$

ABBREVIATIONS USED IN REMARKS
   TC - TEMPERATURE IN CELSIUS
  WCI - WIND CHILL INDEX
   HX - HEAT INDEX
  VSB - VISIBILITY





USA.gov is the U.S. government's official web portal to all federal, state and local government web resources and services.